"startDT [UTC]","vpos","CH4 [ppm]","stdev(CH4) [ppm]","CO2 [ppm]","stdev(CO2) [ppm]","H2O [ppm]","stdev(H2O)","p_LGR [torr]","T_LGR [C]","mt1_LGR [us]","mt2_LGR [us]","T_ECpre [C]","T_EC1 [C]","T_EC2 [C]","p_inlet [hPa]","p_in [hPa]","p_out [hPa]","T_inlet [C]","RH_inlet [%]","dwpt_inlet [C]","T_vent [C]","RH_vent [%]","dwpt_vent [C]","flow_vent [l min-1]","flow_inlet [l min-1]","dwpt_sample [C]","T_room [C]"
2012-05-19 00:00:00,0.0,1.8922,0.0008,402.72,0.16,5.3,12.6,138.07,30.30,24.63,36.35,0.90,14.42,-27.71,-58,561,-929,25.6,10.4,-7.8,25.5,1.2,-32.5,5.73,2.37,-28.6,29.9
2012-05-19 00:01:00,0.0,1.8923,0.0009,402.73,0.17,6.3,14.4,138.07,30.30,24.63,36.35,0.93,14.60,-27.70,-58,561,-929,25.6,10.4,-7.7,25.6,1.2,-32.4,5.73,2.36,-28.6,29.9
2012-05-19 00:02:00,0.0,1.8926,0.0011,402.71,0.16,5.8,13.6,138.07,30.31,24.63,36.35,0.93,14.77,-27.69,-58,561,-929,25.6,10.5,-7.7,25.6,1.2,-32.5,5.73,2.37,-28.6,29.9
2012-05-19 00:03:00,0.0,1.8927,0.0009,402.67,0.20,4.0,12.0,138.06,30.31,24.63,36.35,0.93,14.94,-27.68,-58,561,-929,25.6,10.4,-7.7,25.6,1.2,-32.5,5.73,2.36,-28.6,30.0
2012-05-19 00:04:00,0.0,1.8928,0.0010,402.69,0.19,3.1,11.4,138.06,30.32,24.63,36.36,0.93,15.09,-27.68,-58,561,-929,25.6,10.4,-7.8,25.6,1.2,-32.4,5.73,2.36,-28.6,29.9
2012-05-19 00:05:00,0.0,1.8927,0.0009,402.79,0.23,3.5,9.8,138.07,30.32,24.63,36.35,0.93,15.24,-27.68,-58,561,-929,25.6,10.4,-7.7,25.6,1.2,-32.5,5.73,2.36,-28.6,30.0
2012-05-19 00:06:00,0.0,1.8928,0.0009,402.71,0.16,3.1,8.9,138.06,30.33,24.63,36.35,0.94,15.38,-27.67,-58,561,-929,25.7,10.4,-7.7,25.6,1.2,-32.4,5.73,2.37,-28.6,30.0
2012-05-19 00:07:00,0.0,1.8922,0.0009,402.81,0.17,2.7,8.8,138.06,30.33,24.64,36.35,0.95,15.52,-27.66,-58,561,-929,25.7,10.4,-7.7,25.6,1.2,-32.4,5.73,2.37,-28.6,29.9
2012-05-19 00:08:00,0.0,1.8925,0.0007,402.82,0.19,6.9,12.6,138.06,30.33,24.63,36.35,0.95,15.65,-27.66,-58,561,-929,25.6,10.5,-7.6,25.6,1.2,-32.4,5.73,2.36,-28.6,29.9
2012-05-19 00:09:00,0.0,1.8921,0.0008,402.70,0.23,1.6,7.3,138.06,30.33,24.63,36.35,0.95,15.78,-27.66,-58,561,-929,25.6,10.6,-7.6,25.6,1.2,-32.5,5.73,2.36,-28.6,29.9
2012-05-19 00:10:00,0.0,1.8921,0.0009,402.73,0.20,3.6,11.5,138.06,30.34,24.63,36.35,0.95,15.89,-27.65,-58,561,-929,25.7,10.6,-7.5,25.6,1.2,-32.5,5.73,2.36,-28.6,30.0
2012-05-19 00:11:00,0.0,1.8921,0.0009,402.72,0.19,8.1,14.0,138.06,30.34,24.63,36.35,0.95,16.01,-27.64,-58,561,-929,25.7,10.6,-7.5,25.6,1.2,-32.4,5.73,2.36,-28.6,30.0
2012-05-19 00:12:00,0.0,1.8919,0.0008,402.72,0.21,4.7,12.3,138.06,30.34,24.63,36.35,0.94,16.12,-27.64,-58,561,-929,25.7,10.6,-7.6,25.6,1.2,-32.4,5.73,2.36,-28.6,30.0
2012-05-19 00:13:00,0.0,1.8922,0.0008,402.66,0.20,3.8,9.9,138.06,30.35,24.63,36.36,0.92,16.22,-27.63,-58,561,-929,25.7,10.6,-7.5,25.6,1.2,-32.4,5.73,2.36,-28.6,30.0
2012-05-19 00:14:00,0.0,1.8918,0.0008,402.72,0.20,7.1,18.8,138.06,30.35,24.63,36.35,0.93,16.32,-27.62,-58,561,-929,25.6,10.6,-7.5,25.6,1.2,-32.4,5.73,2.36,-28.6,30.0
2012-05-19 00:15:00,0.0,1.8918,0.0009,402.72,0.21,5.3,13.6,138.06,30.36,24.63,36.35,0.93,16.42,-27.62,-58,561,-929,25.7,10.5,-7.6,25.6,1.2,-32.4,5.73,2.36,-28.6,30.0
2012-05-19 00:16:00,0.0,1.8917,0.0007,402.72,0.21,4.2,10.6,138.06,30.36,24.63,36.35,0.91,16.51,-27.63,-58,561,-929,25.7,10.5,-7.7,25.6,1.2,-32.4,5.73,2.35,-28.6,30.0
2012-05-19 00:17:00,0.0,1.8923,0.0009,402.72,0.19,4.0,11.4,138.06,30.37,24.63,36.35,0.90,16.60,-27.62,-58,561,-929,25.7,10.5,-7.6,25.6,1.2,-32.4,5.73,2.35,-28.6,29.9
2012-05-19 00:18:00,0.0,1.8918,0.0009,402.76,0.15,2.7,9.8,138.06,30.37,24.63,36.35,0.91,16.68,-27.62,-58,561,-929,25.7,10.5,-7.5,25.6,1.2,-32.5,5.73,2.36,-28.6,30.0
2012-05-19 00:19:00,0.0,1.8918,0.0009,402.71,0.20,2.0,7.3,138.06,30.37,24.63,36.35,0.92,16.76,-27.61,-58,561,-929,25.7,10.6,-7.5,25.6,1.2,-32.4,5.73,2.36,-28.6,30.0
2012-05-19 00:20:00,0.0,1.8921,0.0009,402.71,0.20,6.3,14.6,138.06,30.37,24.63,36.35,0.93,16.85,-27.60,-58,561,-929,25.7,10.6,-7.5,25.6,1.2,-32.4,5.73,2.36,-28.6,29.9
2012-05-19 00:21:00,0.0,1.8919,0.0010,402.76,0.19,3.8,10.9,138.06,30.38,24.64,36.35,0.92,16.91,-27.60,-58,561,-929,25.7,10.6,-7.5,25.6,1.2,-32.5,5.73,2.36,-28.6,29.9
2012-05-19 00:22:00,0.0,1.8920,0.0009,402.67,0.18,3.1,9.5,138.06,30.38,24.63,36.35,0.93,16.98,-27.60,-58,561,-929,25.7,10.5,-7.5,25.6,1.2,-32.5,5.73,2.36,-28.6,29.9
2012-05-19 00:23:00,0.0,1.8920,0.0011,402.68,0.19,3.0,10.6,138.06,30.38,24.63,36.35,0.92,17.05,-27.60,-58,561,-930,25.7,10.5,-7.6,25.6,1.2,-32.4,5.73,2.36,-28.6,30.0
2012-05-19 00:24:00,0.0,1.8919,0.0010,402.69,0.19,4.2,12.2,138.06,30.39,24.63,36.35,0.94,17.11,-27.60,-58,561,-929,25.7,10.5,-7.6,25.6,1.2,-32.4,5.73,2.36,-28.6,30.0
2012-05-19 00:25:00,0.0,1.8919,0.0009,402.67,0.18,2.8,9.0,138.06,30.39,24.63,36.35,0.94,17.17,-27.59,-58,561,-930,25.7,10.6,-7.4,25.7,1.2,-32.4,5.73,2.37,-28.6,30.0
2012-05-19 00:26:00,0.0,1.8918,0.0009,402.74,0.18,1.5,5.6,138.06,30.39,24.63,36.35,0.94,17.24,-27.59,-58,561,-930,25.7,10.6,-7.5,25.7,1.2,-32.4,5.73,2.37,-28.6,30.0
2012-05-19 00:27:00,0.0,1.8919,0.0010,402.83,0.19,2.8,10.2,138.06,30.40,24.63,36.34,0.95,17.29,-27.59,-58,561,-929,25.7,10.6,-7.4,25.7,1.2,-32.4,5.73,2.36,-28.6,30.0
2012-05-19 00:28:00,0.0,1.8919,0.0009,402.74,0.17,4.5,13.4,138.06,30.40,24.63,36.35,0.95,17.35,-27.59,-58,561,-930,25.7,10.7,-7.4,25.7,1.2,-32.4,5.73,2.37,-28.6,30.0
2012-05-19 00:29:00,0.0,1.8922,0.0009,402.80,0.18,5.1,12.6,138.06,30.41,24.63,36.35,0.95,17.40,-27.59,-58,561,-930,25.7,10.7,-7.4,25.7,1.2,-32.5,5.73,2.37,-28.6,30.0
2012-05-19 00:30:00,0.0,1.8922,0.0008,402.80,0.20,5.2,11.5,138.06,30.41,24.63,36.34,0.95,17.45,-27.58,-58,561,-929,25.7,10.6,-7.5,25.7,1.2,-32.4,5.73,2.36,-28.6,30.0
2012-05-19 00:31:00,0.0,1.8922,0.0007,402.73,0.19,2.8,10.6,138.06,30.41,24.63,36.35,0.95,17.49,-27.58,-58,561,-929,25.7,10.6,-7.5,25.7,1.2,-32.4,5.73,2.37,-28.6,30.0
2012-05-19 00:32:00,0.0,1.8924,0.0009,402.70,0.20,1.2,6.5,138.06,30.41,24.63,36.35,0.94,17.54,-27.58,-58,561,-930,25.7,10.5,-7.5,25.7,1.2,-32.4,5.73,2.37,-28.6,30.0
2012-05-19 00:33:00,0.0,1.8915,0.0010,402.67,0.21,1.9,7.9,138.06,30.41,24.64,36.35,0.92,17.59,-27.57,-58,561,-929,25.7,10.4,-7.6,25.7,1.2,-32.3,5.73,2.36,-28.6,30.0
2012-05-19 00:34:00,0.0,1.8919,0.0010,402.71,0.19,2.2,8.0,138.06,30.42,24.63,36.35,0.93,17.63,-27.57,-58,561,-930,25.7,10.3,-7.8,25.7,1.2,-32.4,5.73,2.36,-28.6,30.0
2012-05-19 00:35:00,0.0,1.8915,0.0010,402.62,0.17,4.6,12.2,138.06,30.42,24.63,36.36,0.92,17.67,-27.57,-58,561,-930,25.7,10.3,-7.8,25.7,1.2,-32.4,5.73,2.36,-28.7,30.0
2012-05-19 00:36:00,0.0,1.8919,0.0012,402.70,0.13,3.9,10.9,138.06,30.43,24.63,36.35,0.92,17.71,-27.57,-58,561,-930,25.8,10.3,-7.8,25.7,1.2,-32.5,5.73,2.36,-28.6,30.0
2012-05-19 00:37:00,0.0,1.8917,0.0009,402.74,0.21,3.1,11.7,138.06,30.43,24.63,36.34,0.90,17.75,-27.56,-58,561,-930,25.8,10.2,-7.9,25.7,1.2,-32.4,5.73,2.36,-28.6,30.0
2012-05-19 00:38:00,0.0,1.8914,0.0009,402.64,0.19,1.9,8.3,138.06,30.44,24.63,36.35,0.91,17.78,-27.57,-58,561,-929,25.7,10.2,-7.9,25.7,1.2,-32.4,5.73,2.36,-28.7,30.1
2012-05-19 00:39:00,0.0,1.8921,0.0008,402.72,0.18,1.8,7.7,138.06,30.44,24.63,36.35,0.94,17.81,-27.57,-58,561,-929,25.8,10.3,-7.8,25.7,1.2,-32.4,5.73,2.36,-28.7,30.0
2012-05-19 00:40:00,0.0,1.8918,0.0009,402.65,0.16,3.1,9.5,138.06,30.45,24.63,36.35,0.94,17.85,-27.57,-58,561,-930,25.8,10.3,-7.7,25.7,1.2,-32.4,5.73,2.36,-28.7,30.1
2012-05-19 00:41:00,0.0,1.8916,0.0009,402.58,0.19,2.4,9.6,138.06,30.45,24.63,36.35,0.92,17.88,-27.56,-58,561,-930,25.8,10.4,-7.7,25.7,1.2,-32.4,5.73,2.36,-28.7,30.1
2012-05-19 00:42:00,0.0,1.8921,0.0009,402.65,0.16,2.7,11.8,138.06,30.45,24.63,36.35,0.95,17.91,-27.56,-58,561,-929,25.8,10.4,-7.6,25.7,1.2,-32.4,5.73,2.36,-28.7,30.1
2012-05-19 00:43:00,0.0,1.8913,0.0008,402.61,0.16,2.0,8.1,138.06,30.45,24.64,36.35,0.93,17.94,-27.55,-58,561,-930,25.8,10.4,-7.7,25.7,1.2,-32.4,5.73,2.36,-28.6,30.0
2012-05-19 00:44:00,0.0,1.8917,0.0009,402.63,0.19,1.5,9.5,138.06,30.46,24.63,36.35,0.94,17.97,-27.55,-58,562,-930,25.8,10.3,-7.7,25.7,1.2,-32.4,5.73,2.35,-28.6,30.1
2012-05-19 00:45:00,0.0,1.8917,0.0008,402.68,0.19,1.6,5.9,138.06,30.46,24.63,36.35,0.95,17.99,-27.56,-58,561,-930,25.8,10.4,-7.7,25.7,1.2,-32.4,5.73,2.36,-28.7,30.1
2012-05-19 00:46:00,0.0,1.8914,0.0009,402.66,0.20,5.4,12.1,138.06,30.47,24.63,36.35,0.94,18.02,-27.55,-58,561,-930,25.8,10.4,-7.6,25.7,1.2,-32.3,5.73,2.35,-28.7,30.0
2012-05-19 00:47:00,0.0,1.8916,0.0009,402.69,0.21,2.8,8.7,138.06,30.47,24.63,36.35,0.95,18.05,-27.55,-58,562,-930,25.8,10.4,-7.6,25.7,1.2,-32.4,5.73,2.35,-28.6,30.1
2012-05-19 00:48:00,0.0,1.8913,0.0008,402.69,0.19,6.0,15.3,138.06,30.47,24.63,36.35,0.95,18.07,-27.55,-58,562,-930,25.8,10.5,-7.5,25.8,1.2,-32.4,5.73,2.36,-28.6,30.1
2012-05-19 00:49:00,0.0,1.8914,0.0010,402.59,0.23,1.7,7.1,138.06,30.48,24.63,36.36,0.95,18.09,-27.55,-58,562,-930,25.8,10.5,-7.6,25.8,1.2,-32.4,5.73,2.36,-28.6,30.1
2012-05-19 00:50:00,0.0,1.8915,0.0007,402.68,0.20,2.9,9.0,138.06,30.48,24.63,36.35,0.95,18.11,-27.55,-58,562,-930,25.8,10.5,-7.5,25.8,1.2,-32.3,5.73,2.35,-28.7,30.1
2012-05-19 00:51:00,0.0,1.8915,0.0010,402.65,0.19,1.3,7.8,138.06,30.48,24.63,36.35,0.95,18.14,-27.54,-58,562,-930,25.8,10.6,-7.4,25.7,1.2,-32.4,5.73,2.36,-28.6,30.1
2012-05-19 00:52:00,0.0,1.8919,0.0008,402.64,0.21,3.0,11.3,138.06,30.49,24.63,36.35,0.94,18.15,-27.54,-58,562,-930,25.8,10.6,-7.4,25.8,1.2,-32.4,5.73,2.35,-28.6,30.1
2012-05-19 00:53:00,0.0,1.8915,0.0009,402.70,0.17,2.4,8.0,138.06,30.49,24.63,36.35,0.94,18.17,-27.54,-58,562,-930,25.8,10.6,-7.4,25.8,1.2,-32.4,5.73,2.35,-28.6,30.1
2012-05-19 00:54:00,0.0,1.8913,0.0009,402.69,0.21,3.1,9.5,138.06,30.50,24.63,36.35,0.93,18.19,-27.54,-58,562,-930,25.8,10.6,-7.4,25.8,1.2,-32.4,5.73,2.35,-28.7,30.2
2012-05-19 00:55:00,0.0,1.8915,0.0008,402.68,0.20,2.8,10.6,138.06,30.50,24.63,36.35,0.90,18.20,-27.54,-58,562,-930,25.9,10.5,-7.4,25.8,1.2,-32.3,5.73,2.36,-28.6,30.1
2012-05-19 00:56:00,0.0,1.8914,0.0009,402.63,0.19,1.5,7.1,138.06,30.51,24.63,36.35,0.92,18.22,-27.55,-58,562,-930,25.9,10.5,-7.5,25.8,1.2,-32.4,5.73,2.35,-28.7,30.2
2012-05-19 00:57:00,0.0,1.8916,0.0009,402.58,0.19,1.6,7.6,138.06,30.51,24.63,36.35,0.91,18.23,-27.55,-58,562,-930,25.9,10.5,-7.4,25.8,1.2,-32.3,5.73,2.35,-28.7,30.2
2012-05-19 00:58:00,0.0,1.8919,0.0010,402.55,0.22,2.2,6.9,138.06,30.51,24.63,36.35,0.92,18.25,-27.54,-58,562,-930,25.9,10.5,-7.5,25.8,1.2,-32.3,5.73,2.35,-28.7,30.2
2012-05-19 00:59:00,0.0,1.8919,0.0008,402.68,0.20,2.5,10.7,138.06,30.52,24.63,36.35,0.94,18.27,-27.54,-58,562,-930,25.9,10.5,-7.5,25.8,1.2,-32.4,5.73,2.35,-28.7,30.2
2012-05-19 01:00:00,0.0,1.8913,0.0009,402.59,0.16,1.1,7.9,138.06,30.52,24.63,36.35,0.93,18.29,-27.54,-58,562,-930,25.9,10.5,-7.5,25.8,1.2,-32.3,5.73,2.35,-28.7,30.2
2012-05-19 01:01:00,0.0,1.8914,0.0009,402.66,0.16,2.3,7.2,138.06,30.53,24.63,36.35,0.94,18.30,-27.54,-58,562,-930,25.9,10.4,-7.6,25.8,1.2,-32.3,5.73,2.36,-28.6,30.2
2012-05-19 01:02:00,0.0,1.8917,0.0008,402.69,0.16,1.0,7.2,138.06,30.53,24.63,36.35,0.93,18.30,-27.54,-58,562,-930,25.9,10.3,-7.8,25.8,1.2,-32.3,5.73,2.35,-28.7,30.2
2012-05-19 01:03:00,0.0,1.8916,0.0012,402.67,0.26,1.6,6.9,138.06,30.54,24.63,36.35,1.15,17.63,-27.55,-58,562,-930,25.9,10.2,-7.8,25.8,1.2,-32.3,5.73,2.35,-28.7,30.2
2012-05-19 01:04:00,0.0,1.8915,0.0008,402.68,0.17,2.6,11.3,138.06,30.54,24.64,36.35,1.08,15.61,-27.55,-58,562,-930,25.9,10.3,-7.7,25.8,1.2,-32.3,5.73,2.36,-28.6,30.2
2012-05-19 01:05:00,0.0,1.8916,0.0009,402.79,0.17,0.4,5.5,138.06,30.55,24.63,36.34,0.97,13.27,-27.55,-58,562,-930,25.9,10.3,-7.7,25.8,1.2,-32.3,5.73,2.35,-28.7,30.3
2012-05-19 01:06:00,0.0,1.8921,0.0010,402.69,0.19,1.0,6.3,138.06,30.55,24.63,36.35,1.06,10.91,-27.55,-58,562,-930,25.9,10.3,-7.7,25.8,1.2,-32.3,5.73,2.35,-28.7,30.3
2012-05-19 01:07:00,0.0,1.8914,0.0008,402.66,0.20,2.3,8.5,138.06,30.55,24.63,36.35,1.08,8.62,-27.53,-58,562,-930,25.9,10.3,-7.6,25.8,1.2,-32.3,5.73,2.36,-28.6,30.2
2012-05-19 01:08:00,0.0,1.8914,0.0009,402.62,0.18,0.7,6.1,138.06,30.56,24.63,36.35,0.99,6.43,-27.52,-58,562,-930,25.9,10.3,-7.6,25.9,1.2,-32.3,5.73,2.36,-28.6,30.2
2012-05-19 01:09:00,0.0,1.8915,0.0009,402.60,0.19,1.9,7.9,138.06,30.56,24.63,36.35,1.02,4.32,-27.50,-58,562,-930,25.9,10.4,-7.6,25.9,1.2,-32.3,5.73,2.36,-28.6,30.2
2012-05-19 01:10:00,0.0,1.8914,0.0009,402.58,0.20,1.9,10.3,138.06,30.56,24.63,36.35,1.10,2.32,-27.49,-58,562,-930,25.9,10.4,-7.5,25.9,1.2,-32.3,5.73,2.37,-28.6,30.3
2012-05-19 01:11:00,0.0,1.8915,0.0008,402.66,0.17,0.6,6.5,138.06,30.57,24.63,36.35,1.02,0.43,-27.47,-58,562,-930,25.9,10.4,-7.5,25.9,1.2,-32.3,5.73,2.36,-28.6,30.3
2012-05-19 01:12:00,0.0,1.8912,0.0008,402.61,0.24,1.2,5.4,138.06,30.57,24.63,36.35,0.98,-1.38,-27.46,-58,562,-930,25.9,10.4,-7.6,25.9,1.2,-32.3,5.73,2.36,-28.6,30.2
2012-05-19 01:13:00,0.0,1.8914,0.0008,402.59,0.18,2.0,11.3,138.06,30.57,24.63,36.35,1.08,-3.07,-27.44,-58,562,-930,25.9,10.4,-7.6,25.9,1.2,-32.3,5.73,2.35,-28.7,30.2
2012-05-19 01:14:00,0.0,1.8915,0.0010,402.62,0.20,1.7,7.8,138.06,30.58,24.63,36.35,1.06,-4.67,-27.43,-58,562,-930,25.9,10.4,-7.6,25.9,1.2,-32.2,5.73,2.36,-28.7,30.2
2012-05-19 01:15:00,0.0,1.8915,0.0009,402.68,0.18,2.2,6.9,138.06,30.58,24.63,36.34,0.97,-6.18,-27.43,-58,562,-930,25.9,10.4,-7.5,25.9,1.2,-32.3,5.73,2.36,-28.7,30.2
2012-05-19 01:16:00,0.0,1.8915,0.0009,402.68,0.19,0.2,4.3,138.06,30.58,24.63,36.34,1.01,-7.60,-27.42,-58,562,-930,25.9,10.4,-7.5,25.9,1.2,-32.3,5.73,2.35,-28.6,30.2
2012-05-19 01:17:00,0.0,1.8918,0.0009,402.51,0.18,2.0,8.3,138.06,30.59,24.63,36.36,1.08,-8.94,-27.42,-58,562,-930,25.9,10.4,-7.5,25.9,1.2,-32.3,5.73,2.36,-28.6,30.2
2012-05-19 01:18:00,0.0,1.8912,0.0008,402.62,0.21,2.1,8.4,138.06,30.60,24.63,36.35,1.04,-10.20,-27.41,-58,562,-930,25.9,10.4,-7.6,25.9,1.2,-32.3,5.73,2.35,-28.6,30.3
2012-05-19 01:19:00,0.0,1.8918,0.0008,402.69,0.25,0.6,6.4,138.06,30.60,24.63,36.34,0.97,-11.38,-27.41,-58,562,-930,25.9,10.3,-7.7,25.9,1.2,-32.3,5.73,2.35,-28.7,30.3
2012-05-19 01:20:00,0.0,1.8914,0.0009,402.58,0.19,1.5,8.2,138.06,30.60,24.63,36.35,1.01,-12.43,-27.42,-58,562,-930,25.9,10.3,-7.6,25.9,1.2,-32.3,5.73,2.35,-28.6,30.2
2012-05-19 01:21:00,0.0,1.8916,0.0008,402.70,0.20,2.8,11.1,138.06,30.61,24.63,36.35,1.06,-13.46,-27.42,-58,562,-930,25.9,10.4,-7.6,25.9,1.2,-32.2,5.73,2.35,-28.7,30.2
2012-05-19 01:22:00,0.0,1.8916,0.0009,402.59,0.17,2.0,9.5,138.06,30.61,24.63,36.35,1.05,-14.45,-27.42,-58,562,-930,26.0,10.3,-7.7,25.9,1.2,-32.3,5.73,2.35,-28.7,30.2
2012-05-19 01:23:00,0.0,1.8914,0.0008,402.61,0.19,-0.2,3.8,138.06,30.61,24.63,36.34,0.97,-15.39,-27.42,-58,562,-930,26.0,10.2,-7.7,25.9,1.2,-32.3,5.73,2.36,-28.7,30.3
2012-05-19 01:24:00,0.0,1.8917,0.0007,402.66,0.19,2.0,8.7,138.06,30.62,24.63,36.35,0.98,-16.26,-27.43,-58,562,-930,26.0,10.3,-7.6,25.9,1.2,-32.3,5.73,2.36,-28.7,30.2
2012-05-19 01:25:00,0.0,1.8912,0.0008,402.70,0.24,1.6,8.0,138.06,30.62,24.63,36.35,1.05,-17.05,-27.43,-58,562,-930,26.0,10.3,-7.6,25.9,1.2,-32.3,5.73,2.36,-28.7,30.2
2012-05-19 01:26:00,0.0,1.8914,0.0010,402.66,0.18,1.8,7.7,138.06,30.63,24.63,36.35,1.07,-17.80,-27.45,-58,562,-930,26.0,10.4,-7.6,25.9,1.2,-32.3,5.73,2.35,-28.7,30.2
2012-05-19 01:27:00,0.0,1.8913,0.0011,402.62,0.19,1.9,8.1,138.06,30.63,24.64,36.35,0.98,-18.50,-27.46,-58,562,-930,26.0,10.4,-7.5,25.9,1.2,-32.3,5.73,2.36,-28.6,30.2
2012-05-19 01:28:00,0.0,1.8914,0.0009,402.60,0.19,1.2,7.2,138.06,30.63,24.63,36.35,0.97,-19.16,-27.47,-58,562,-930,26.0,10.5,-7.4,25.9,1.2,-32.3,5.73,2.36,-28.6,30.2
2012-05-19 01:29:00,0.0,1.8915,0.0009,402.61,0.19,0.5,6.2,138.06,30.64,24.63,36.35,1.03,-19.80,-27.47,-58,562,-930,26.0,10.4,-7.5,25.9,1.2,-32.3,5.73,2.36,-28.6,30.2
2012-05-19 01:30:00,0.0,1.8912,0.0008,402.67,0.21,1.1,7.4,138.06,30.64,24.63,36.35,1.07,-20.42,-27.48,-58,563,-930,26.0,10.4,-7.5,25.9,1.2,-32.3,5.73,2.36,-28.6,30.3
2012-05-19 01:31:00,0.0,1.8912,0.0008,402.57,0.19,0.7,6.4,138.06,30.65,24.63,36.35,1.02,-21.00,-27.48,-58,563,-930,26.0,10.2,-7.7,25.9,1.2,-32.3,5.73,2.36,-28.7,30.3
2012-05-19 01:32:00,0.0,1.8915,0.0010,402.64,0.17,0.3,5.2,138.05,30.65,24.63,36.35,0.97,-21.55,-27.50,-58,562,-930,26.0,10.1,-7.8,25.9,1.2,-32.4,5.73,2.36,-28.6,30.3
2012-05-19 01:33:00,0.0,1.8914,0.0009,402.63,0.16,0.9,6.7,138.06,30.66,24.63,36.35,0.99,-22.07,-27.51,-58,562,-930,26.0,10.1,-7.8,25.9,1.2,-32.5,5.73,2.36,-28.6,30.3
2012-05-19 01:34:00,0.0,1.8911,0.0009,402.58,0.21,1.6,9.0,138.06,30.66,24.63,36.35,1.05,-22.56,-27.52,-58,563,-930,26.0,10.2,-7.8,25.9,1.2,-32.5,5.73,2.36,-28.6,30.3
2012-05-19 01:35:00,0.0,1.8917,0.0008,402.62,0.21,2.4,9.2,138.06,30.67,24.63,36.35,1.04,-23.02,-27.53,-58,563,-930,26.0,10.3,-7.6,25.9,1.2,-32.5,5.73,2.35,-28.6,30.3
2012-05-19 01:36:00,0.0,1.8909,0.0009,402.58,0.19,0.3,4.1,138.06,30.67,24.64,36.35,1.00,-23.46,-27.54,-58,563,-930,26.0,10.4,-7.5,25.9,1.2,-32.5,5.73,2.35,-28.7,30.3
2012-05-19 01:37:00,0.0,1.8915,0.0009,402.64,0.18,1.2,6.4,138.06,30.68,24.63,36.35,0.96,-23.87,-27.55,-58,563,-930,26.0,10.4,-7.5,25.9,1.2,-32.5,5.73,2.35,-28.7,30.3
2012-05-19 01:38:00,0.0,1.8913,0.0010,402.57,0.20,2.1,8.3,138.06,30.68,24.63,36.35,1.00,-24.25,-27.55,-58,563,-930,26.0,10.4,-7.5,25.9,1.2,-32.5,5.73,2.35,-28.7,30.3
2012-05-19 01:39:00,0.0,1.8910,0.0008,402.55,0.19,2.5,10.2,138.06,30.68,24.63,36.35,1.04,-24.62,-27.57,-58,562,-930,26.0,10.3,-7.6,25.9,1.2,-32.4,5.73,2.35,-28.6,30.2
2012-05-19 01:40:00,0.0,1.8913,0.0008,402.59,0.19,1.9,11.4,138.06,30.68,24.63,36.35,1.05,-24.96,-27.57,-58,563,-930,26.0,10.3,-7.6,25.9,1.2,-32.5,5.73,2.36,-28.7,30.3
2012-05-19 01:41:00,0.0,1.8912,0.0008,402.53,0.21,1.1,6.9,138.06,30.69,24.63,36.36,0.99,-25.28,-27.58,-58,563,-930,26.0,10.2,-7.7,25.9,1.2,-32.5,5.73,2.35,-28.7,30.3
2012-05-19 01:42:00,0.0,1.8914,0.0008,402.59,0.17,-0.6,3.1,138.06,30.69,24.63,36.35,0.96,-25.58,-27.59,-58,563,-930,26.0,10.3,-7.6,26.0,1.2,-32.5,5.73,2.35,-28.6,30.4
2012-05-19 01:43:00,0.0,1.8916,0.0008,402.67,0.14,1.9,9.0,138.06,30.70,24.63,36.34,1.00,-25.87,-27.59,-58,563,-930,26.0,10.3,-7.6,26.0,1.2,-32.5,5.73,2.35,-28.7,30.4
2012-05-19 01:44:00,0.0,1.8912,0.0007,402.68,0.20,2.5,9.7,138.06,30.70,24.63,36.35,1.03,-26.13,-27.61,-58,563,-930,26.0,10.3,-7.6,26.0,1.2,-32.5,5.73,2.36,-28.6,30.4
2012-05-19 01:45:00,0.0,1.8912,0.0009,402.60,0.18,4.7,12.8,138.05,30.71,24.63,36.35,1.05,-26.38,-27.61,-58,563,-930,26.0,10.3,-7.6,26.0,1.2,-32.5,5.73,2.36,-28.6,30.3
2012-05-19 01:46:00,0.0,1.8910,0.0010,402.62,0.21,1.6,6.9,138.05,30.71,24.64,36.35,1.01,-26.62,-27.61,-58,563,-930,26.0,10.3,-7.5,26.0,1.2,-32.5,5.73,2.36,-28.7,30.3
2012-05-19 01:47:00,0.0,1.8914,0.0009,402.60,0.21,0.1,4.4,138.05,30.72,24.63,36.35,1.16,-45.18,-47.22,-58,563,-930,26.0,10.3,-7.6,26.0,1.2,-32.4,5.42,2.42,-32.7,30.3
2012-05-19 01:48:00,0.0,1.8913,0.0008,402.54,0.20,3.9,14.8,138.06,30.72,24.63,36.35,0.98,-27.05,-27.63,-58,563,-930,26.1,10.3,-7.6,26.0,1.2,-32.5,5.73,2.36,-28.6,30.3
2012-05-19 01:49:00,0.0,1.8911,0.0009,402.57,0.19,1.2,7.5,138.05,30.73,24.63,36.35,1.01,-27.24,-27.63,-58,563,-930,26.1,10.3,-7.6,26.0,1.2,-32.5,5.73,2.35,-28.6,30.3
2012-05-19 01:50:00,0.0,1.8911,0.0009,402.59,0.18,1.0,6.8,138.05,30.73,24.63,36.35,1.04,-27.43,-27.64,-58,563,-930,26.1,10.3,-7.6,26.0,1.2,-32.4,5.73,2.36,-28.7,30.4
2012-05-19 01:51:00,0.0,1.8914,0.0009,402.51,0.20,1.6,6.2,138.05,30.74,24.63,36.36,1.01,-27.59,-27.64,-58,563,-930,26.1,10.3,-7.6,26.0,1.2,-32.6,5.73,2.36,-28.6,30.3
2012-05-19 01:52:00,0.0,1.8913,0.0008,402.58,0.17,2.1,8.6,138.05,30.74,24.64,36.35,0.97,-27.30,-27.64,-59,563,-930,26.1,10.3,-7.6,26.0,1.2,-32.7,5.73,2.36,-28.6,30.4
2012-05-19 01:53:00,0.0,1.8911,0.0010,402.55,0.20,2.7,9.8,138.05,30.75,24.64,36.36,0.96,-27.26,-27.66,-58,563,-930,26.1,10.3,-7.5,26.0,1.2,-32.8,5.73,2.35,-28.7,30.3
2012-05-19 01:54:00,0.0,1.8913,0.0008,402.55,0.19,1.7,9.4,138.05,30.75,24.63,36.35,0.98,-27.40,-27.66,-58,563,-930,26.1,10.2,-7.7,26.0,1.2,-32.7,5.73,2.35,-28.6,30.3
2012-05-19 01:55:00,0.0,1.8910,0.0010,402.61,0.17,2.1,8.4,138.05,30.75,24.64,36.35,1.02,-27.55,-27.67,-58,563,-930,26.1,10.2,-7.7,26.0,1.2,-32.7,5.73,2.35,-28.6,30.4
2012-05-19 01:56:00,0.0,1.8910,0.0008,402.60,0.20,1.7,8.3,138.05,30.76,24.64,36.35,0.91,-27.52,-27.67,-58,563,-931,26.1,10.2,-7.7,26.0,1.2,-32.7,5.73,2.35,-28.6,30.4
2012-05-19 01:57:00,0.0,1.8907,0.0008,402.56,0.17,0.9,5.9,138.05,30.76,24.64,36.36,1.06,-27.26,-27.68,-58,563,-930,26.1,10.2,-7.7,26.0,1.2,-32.6,5.73,2.35,-28.6,30.4
2012-05-19 01:58:00,0.0,1.8912,0.0009,402.57,0.15,2.4,9.0,138.05,30.77,24.63,36.35,1.04,-27.35,-27.69,-58,563,-930,26.1,10.1,-7.7,26.0,1.2,-32.7,5.73,2.35,-28.6,30.4
2012-05-19 01:59:00,0.0,1.8913,0.0010,402.55,0.18,4.8,12.7,138.05,30.77,24.63,36.35,0.97,-27.50,-27.69,-58,563,-930,26.1,10.1,-7.7,26.0,1.2,-32.7,5.73,2.35,-28.6,30.4
2012-05-19 02:00:00,1.0,1.8969,0.0043,388.44,9.87,1.4,6.0,138.05,30.77,24.63,36.36,0.96,-27.65,-27.70,-58,575,-930,26.1,10.2,-7.7,26.1,1.2,-32.6,5.73,2.33,-28.6,30.4
2012-05-19 02:01:00,1.0,1.9015,0.0008,377.03,0.17,2.8,10.5,138.05,30.78,24.63,36.36,0.98,-27.35,-27.65,-58,574,-930,26.1,10.2,-7.6,26.1,1.2,-32.5,5.73,2.35,-28.6,30.5
2012-05-19 02:02:00,1.0,1.9013,0.0008,376.86,0.18,2.5,9.6,138.05,30.78,24.63,36.37,0.97,-27.32,-26.65,-58,574,-930,26.1,10.1,-7.8,26.1,1.1,-32.8,5.73,2.35,-28.6,30.5
2012-05-19 02:03:00,1.0,1.9012,0.0009,376.85,0.20,2.5,12.0,138.05,30.79,24.63,36.36,0.82,-27.44,-24.77,-58,574,-930,26.1,10.0,-7.9,26.1,1.2,-32.1,5.73,2.35,-28.6,30.5
2012-05-19 02:04:00,1.0,1.9016,0.0009,376.87,0.18,1.1,6.5,138.05,30.79,24.63,36.36,0.82,-27.52,-22.77,-58,574,-930,26.2,10.0,-7.8,26.1,1.3,-31.2,5.73,2.35,-28.6,30.6
2012-05-19 02:05:00,0.0,1.8955,0.0041,391.34,9.97,4.1,10.6,138.05,30.80,24.63,36.35,0.88,-27.57,-20.73,-58,561,-931,26.2,9.9,-7.9,26.1,1.4,-30.6,5.73,2.36,-28.6,30.5
2012-05-19 02:06:00,0.0,1.8913,0.0009,402.41,0.18,3.5,11.4,138.05,30.80,24.63,36.36,0.93,-27.58,-18.93,-58,562,-931,26.2,9.9,-8.0,26.1,1.4,-30.4,5.73,2.36,-28.6,30.6
2012-05-19 02:07:00,0.0,1.8912,0.0008,402.43,0.19,0.4,4.8,138.05,30.81,24.63,36.36,0.95,-27.59,-17.13,-58,562,-931,26.2,9.9,-7.9,26.1,1.4,-30.4,5.73,2.36,-28.6,30.6
2012-05-19 02:08:00,0.0,1.8910,0.0008,402.50,0.21,4.1,8.6,138.05,30.81,24.63,36.35,0.83,-27.58,-15.43,-59,562,-931,26.2,9.9,-7.9,26.1,1.4,-30.4,5.73,2.36,-28.6,30.6
2012-05-19 02:09:00,0.0,1.8912,0.0009,402.48,0.17,2.7,9.2,138.05,30.81,24.63,36.35,0.81,-27.57,-13.82,-59,562,-931,26.3,9.9,-7.9,26.1,1.4,-30.4,5.73,2.36,-28.6,30.6
2012-05-19 02:10:00,0.0,1.8909,0.0008,402.44,0.21,0.3,4.4,138.05,30.82,24.63,36.36,0.88,-27.55,-12.29,-59,562,-931,26.3,10.0,-7.8,26.2,1.4,-30.6,5.73,2.36,-28.6,30.6
2012-05-19 02:11:00,0.0,1.8912,0.0008,402.54,0.18,1.8,9.9,138.05,30.82,24.63,36.35,0.93,-27.53,-10.83,-59,562,-931,26.3,10.0,-7.8,26.2,1.4,-30.8,5.73,2.36,-28.7,30.6
2012-05-19 02:12:00,0.0,1.8909,0.0008,402.48,0.20,2.8,8.7,138.05,30.83,24.63,36.35,0.96,-27.51,-9.45,-59,562,-931,26.3,9.9,-7.9,26.2,1.4,-30.7,5.73,2.36,-28.7,30.6
2012-05-19 02:13:00,0.0,1.8910,0.0010,402.43,0.16,1.8,7.1,138.05,30.83,24.63,36.35,0.87,-27.49,-8.14,-59,562,-931,26.3,9.9,-7.9,26.2,1.4,-30.8,5.73,2.35,-28.7,30.6
2012-05-19 02:14:00,0.0,1.8910,0.0010,402.50,0.19,1.9,7.6,138.05,30.84,24.63,36.35,0.80,-27.47,-6.90,-59,562,-931,26.3,9.9,-7.9,26.2,1.3,-31.3,5.73,2.35,-28.7,30.6
2012-05-19 02:15:00,0.0,1.8910,0.0009,402.42,0.23,0.9,6.3,138.05,30.84,24.63,36.36,0.88,-27.45,-5.71,-59,562,-931,26.3,9.9,-7.9,26.2,1.3,-31.3,5.73,2.36,-28.7,30.6
2012-05-19 02:16:00,0.0,1.8910,0.0009,402.45,0.19,3.6,13.0,138.05,30.85,24.63,36.35,0.92,-27.43,-4.57,-59,562,-931,26.3,9.9,-7.9,26.2,1.3,-31.5,5.73,2.35,-28.7,30.6
2012-05-19 02:17:00,0.0,1.8910,0.0008,402.53,0.18,2.1,6.8,138.05,30.85,24.63,36.35,0.94,-27.41,-3.50,-59,562,-931,26.3,9.8,-8.0,26.2,1.3,-31.6,5.73,2.35,-28.8,30.6
2012-05-19 02:18:00,0.0,1.8912,0.0009,402.52,0.20,1.9,6.7,138.05,30.85,24.63,36.35,0.96,-27.39,-2.47,-59,562,-931,26.3,9.8,-8.0,26.2,1.3,-31.6,5.73,2.34,-28.8,30.6
2012-05-19 02:19:00,0.0,1.8910,0.0010,402.54,0.18,1.6,6.4,138.05,30.86,24.63,36.35,0.89,-27.37,-1.50,-59,563,-931,26.3,9.8,-8.0,26.2,1.3,-31.7,5.73,2.35,-28.8,30.6
2012-05-19 02:20:00,0.0,1.8910,0.0008,402.60,0.18,2.0,8.8,138.05,30.86,24.63,36.35,0.85,-27.35,-0.57,-59,563,-931,26.3,9.8,-8.0,26.2,1.3,-31.6,5.73,2.35,-28.8,30.6
2012-05-19 02:21:00,0.0,1.8908,0.0011,402.50,0.19,2.8,10.5,138.05,30.87,24.64,36.36,0.88,-27.33,0.33,-59,563,-931,26.3,9.8,-8.0,26.2,1.3,-31.8,5.73,2.35,-28.8,30.6